HZL05 YSSY-YSRI

Flight info

Callsign HZL05
Flight time 0h 25m
Altitude 3400
Route DCT BIK ISMER DCT YSRI
Aircraft JMB/L-V/N

Departure

Time 2026-05-06 04:30
Airport Sydney Kingsford Smith International Airport (YSSY)

Arrival

Time 2026-05-06 04:55
Airport RAAF Base Richmond (YSRI)
Time Latitude Longitude Altitude Speed Heading
2026-05-06 04:06 -33.93413 151.18851 25 ft 0 kts 189°
2026-05-06 04:12 -33.93420 151.18845 25 ft 6 kts 210°
2026-05-06 04:13 -33.93457 151.18868 25 ft 12 kts 174°
2026-05-06 04:13 -33.93496 151.18862 25 ft 5 kts 190°
2026-05-06 04:13 -33.93541 151.18857 25 ft 0 kts 200°
2026-05-06 04:13 -33.93542 151.18856 25 ft 0 kts 199°
2026-05-06 04:15 -33.93607 151.18794 25 ft 22 kts 247°
2026-05-06 04:15 -33.93654 151.18608 25 ft 24 kts 255°
2026-05-06 04:15 -33.93710 151.18371 25 ft 31 kts 257°
2026-05-06 04:16 -33.93754 151.18196 25 ft 24 kts 260°
2026-05-06 04:16 -33.93781 151.18064 25 ft 24 kts 258°
2026-05-06 04:16 -33.93812 151.17926 21 ft 20 kts 253°
2026-05-06 04:16 -33.93899 151.17792 16 ft 23 kts 174°
2026-05-06 04:17 -33.94068 151.17829 17 ft 26 kts 171°
2026-05-06 04:17 -33.94224 151.17866 19 ft 18 kts 165°
2026-05-06 04:17 -33.94397 151.17914 19 ft 31 kts 179°
2026-05-06 04:17 -33.94606 151.17909 19 ft 28 kts 169°
2026-05-06 04:18 -33.94623 151.17913 19 ft 0 kts 167°
2026-05-06 04:18 -33.93413 151.18851 25 ft 0 kts 189°
2026-05-06 04:20 -33.93426 151.18848 25 ft 10 kts 187°
2026-05-06 04:20 -33.93519 151.18854 25 ft 2 kts 196°
2026-05-06 04:21 -33.93533 151.18852 25 ft 11 kts 187°
2026-05-06 04:21 -33.93564 151.18850 25 ft 1 kts 194°
2026-05-06 04:22 -33.93659 151.18817 23 ft 6 kts 216°
2026-05-06 04:22 -33.93702 151.18827 21 ft 17 kts 163°
2026-05-06 04:22 -33.93824 151.18751 20 ft 27 kts 248°
2026-05-06 04:23 -33.93965 151.18177 21 ft 34 kts 254°
2026-05-06 04:23 -33.94025 151.17897 17 ft 30 kts 259°
2026-05-06 04:23 -33.94117 151.17848 18 ft 13 kts 173°
2026-05-06 04:23 -33.94180 151.17866 19 ft 7 kts 163°
2026-05-06 04:24 -33.94234 151.17889 19 ft 9 kts 156°
2026-05-06 04:24 -33.94305 151.17906 19 ft 12 kts 176°
2026-05-06 04:24 -33.94393 151.17915 19 ft 13 kts 177°
2026-05-06 04:24 -33.94489 151.17895 18 ft 15 kts 189°
2026-05-06 04:25 -33.94586 151.17897 19 ft 10 kts 166°
2026-05-06 04:25 -33.94611 151.17904 19 ft 0 kts 169°
2026-05-06 04:25 -33.94623 151.17907 18 ft 4 kts 170°
2026-05-06 04:25 -33.94664 151.17918 19 ft 8 kts 167°
2026-05-06 04:26 -33.94760 151.17949 17 ft 17 kts 166°
2026-05-06 04:26 -33.94908 151.17990 16 ft 24 kts 168°
2026-05-06 04:26 -33.95051 151.18023 20 ft 13 kts 164°
2026-05-06 04:26 -33.95073 151.18035 20 ft 12 kts 140°
2026-05-06 04:27 -33.95093 151.18174 19 ft 20 kts 78°
2026-05-06 04:27 -33.95062 151.18339 19 ft 20 kts 77°
2026-05-06 04:27 -33.95033 151.18498 21 ft 19 kts 78°
2026-05-06 04:27 -33.95009 151.18645 19 ft 12 kts 72°
2026-05-06 04:28 -33.94992 151.18737 19 ft 0 kts 72°
2026-05-06 04:28 -33.94992 151.18790 18 ft 20 kts 109°
2026-05-06 04:28 -33.95121 151.18881 17 ft 23 kts 166°
2026-05-06 04:29 -33.95480 151.18974 29 ft 83 kts 168°
2026-05-06 04:29 -33.96115 151.19133 163 ft 98 kts 165°
2026-05-06 04:29 -33.96564 151.19239 327 ft 97 kts 167°
2026-05-06 04:29 -33.97216 151.19374 537 ft 94 kts 166°
2026-05-06 04:30 -33.97812 151.19543 780 ft 83 kts 161°
2026-05-06 04:30 -33.98164 151.20090 816 ft 97 kts 92°
2026-05-06 04:30 -33.97787 151.20772 833 ft 109 kts 22°
2026-05-06 04:30 -33.97074 151.20562 836 ft 108 kts 321°
2026-05-06 04:31 -33.96604 151.19918 937 ft 108 kts 306°
2026-05-06 04:31 -33.96166 151.19198 967 ft 105 kts 298°
2026-05-06 04:31 -33.95815 151.18467 1139 ft 93 kts 295°
2026-05-06 04:31 -33.95531 151.17762 1259 ft 97 kts 292°
2026-05-06 04:32 -33.95273 151.17023 1387 ft 94 kts 285°
2026-05-06 04:32 -33.95001 151.16275 1437 ft 100 kts 297°
2026-05-06 04:32 -33.94678 151.15574 1622 ft 93 kts 296°
2026-05-06 04:32 -33.94525 151.15198 1674 ft 96 kts 291°
2026-05-06 04:33 -33.94427 151.14902 1711 ft 96 kts 287°
2026-05-06 04:33 -33.94289 151.14136 1863 ft 92 kts 274°
2026-05-06 04:33 -33.94159 151.13358 1937 ft 97 kts 282°
2026-05-06 04:34 -33.94010 151.12579 2074 ft 94 kts 276°
2026-05-06 04:34 -33.93934 151.11766 2108 ft 98 kts 274°
2026-05-06 04:34 -33.93842 151.10993 2253 ft 94 kts 281°
2026-05-06 04:34 -33.93683 151.10208 2369 ft 94 kts 279°
2026-05-06 04:35 -33.93622 151.09459 2448 ft 95 kts 270°
2026-05-06 04:35 -33.93611 151.08667 2576 ft 91 kts 265°
2026-05-06 04:35 -33.93658 151.07905 2681 ft 94 kts 264°
2026-05-06 04:35 -33.93685 151.07108 2755 ft 94 kts 263°
2026-05-06 04:36 -33.93771 151.06337 2835 ft 93 kts 262°
2026-05-06 04:36 -33.93781 151.05565 2892 ft 94 kts 272°
2026-05-06 04:36 -33.93705 151.04779 2944 ft 95 kts 275°
2026-05-06 04:36 -33.93606 151.03981 2966 ft 97 kts 277°
2026-05-06 04:37 -33.93485 151.03185 3062 ft 99 kts 278°
2026-05-06 04:37 -33.93358 151.02354 3113 ft 100 kts 279°
2026-05-06 04:37 -33.93216 151.01545 3224 ft 100 kts 280°
2026-05-06 04:37 -33.93103 151.00718 3183 ft 110 kts 275°
2026-05-06 04:38 -33.93019 150.99822 3232 ft 104 kts 275°
2026-05-06 04:38 -33.92928 150.98950 3226 ft 106 kts 286°
2026-05-06 04:38 -33.92333 150.98483 3267 ft 110 kts 336°
2026-05-06 04:38 -33.91660 150.98029 3247 ft 111 kts 316°
2026-05-06 04:39 -33.91101 150.97403 3296 ft 107 kts 313°
2026-05-06 04:39 -33.90550 150.96784 3311 ft 108 kts 316°
2026-05-06 04:39 -33.89984 150.96215 3386 ft 106 kts 317°
2026-05-06 04:39 -33.89406 150.95645 3421 ft 110 kts 316°
2026-05-06 04:40 -33.88848 150.95050 3536 ft 106 kts 316°
2026-05-06 04:40 -33.88280 150.94495 3602 ft 107 kts 319°
2026-05-06 04:40 -33.87707 150.93927 3663 ft 108 kts 318°
2026-05-06 04:40 -33.87129 150.93404 3758 ft 106 kts 320°
2026-05-06 04:41 -33.86517 150.92892 3799 ft 108 kts 322°
2026-05-06 04:41 -33.85887 150.92383 3799 ft 110 kts 321°
2026-05-06 04:41 -33.85299 150.91831 3869 ft 107 kts 317°
2026-05-06 04:41 -33.84717 150.91239 3831 ft 113 kts 316°
2026-05-06 04:42 -33.84084 150.90628 3657 ft 120 kts 318°
2026-05-06 04:42 -33.83468 150.89984 3626 ft 116 kts 314°
2026-05-06 04:42 -33.82859 150.89346 3499 ft 119 kts 317°
2026-05-06 04:42 -33.82207 150.88710 3320 ft 120 kts 319°
2026-05-06 04:43 -33.81550 150.88104 3206 ft 119 kts 320°
2026-05-06 04:43 -33.80882 150.87514 3053 ft 120 kts 321°
2026-05-06 04:43 -33.80205 150.86938 2919 ft 119 kts 323°
2026-05-06 04:43 -33.79523 150.86360 2765 ft 120 kts 323°
2026-05-06 04:44 -33.78846 150.85780 2639 ft 119 kts 322°
2026-05-06 04:44 -33.78183 150.85184 2508 ft 119 kts 321°
2026-05-06 04:44 -33.77535 150.84558 2388 ft 119 kts 319°
2026-05-06 04:44 -33.76905 150.83917 2331 ft 115 kts 321°
2026-05-06 04:45 -33.76201 150.83466 2317 ft 116 kts 336°
2026-05-06 04:45 -33.75456 150.83059 2249 ft 117 kts 339°
2026-05-06 04:45 -33.74657 150.82794 2107 ft 122 kts 345°
2026-05-06 04:45 -33.73851 150.82534 2013 ft 120 kts 343°
2026-05-06 04:46 -33.73052 150.82264 1932 ft 120 kts 343°
2026-05-06 04:46 -33.72254 150.81968 1852 ft 120 kts 342°
2026-05-06 04:46 -33.71476 150.81655 1748 ft 119 kts 339°
2026-05-06 04:46 -33.70696 150.81260 1624 ft 120 kts 333°
2026-05-06 04:47 -33.69948 150.80833 1554 ft 119 kts 335°
2026-05-06 04:47 -33.69193 150.80424 1476 ft 119 kts 336°
2026-05-06 04:47 -33.68420 150.80055 1401 ft 119 kts 340°
2026-05-06 04:47 -33.67635 150.79747 1337 ft 118 kts 345°
2026-05-06 04:48 -33.66829 150.79563 1282 ft 118 kts 356°
2026-05-06 04:48 -33.66016 150.79484 1283 ft 114 kts 353°
2026-05-06 04:48 -33.65238 150.79342 1286 ft 113 kts 352°
2026-05-06 04:48 -33.64442 150.79258 1254 ft 112 kts 356°
2026-05-06 04:49 -33.63654 150.79194 1247 ft 115 kts 356°
2026-05-06 04:49 -33.62850 150.79133 1208 ft 118 kts 356°
2026-05-06 04:49 -33.62032 150.79012 1153 ft 117 kts 350°
2026-05-06 04:49 -33.61268 150.78985 1104 ft 107 kts 358°
2026-05-06 04:50 -33.60616 150.78533 1015 ft 109 kts 319°
2026-05-06 04:50 -33.60200 150.77802 892 ft 107 kts 300°
2026-05-06 04:50 -33.59823 150.77022 792 ft 103 kts 304°
2026-05-06 04:50 -33.59434 150.76302 723 ft 105 kts 303°
2026-05-06 04:51 -33.59038 150.75568 646 ft 104 kts 304°
2026-05-06 04:51 -33.58676 150.74829 590 ft 103 kts 303°
2026-05-06 04:51 -33.58269 150.74157 537 ft 75 kts 313°
2026-05-06 04:51 -33.57957 150.73705 486 ft 71 kts 292°
2026-05-06 04:52 -33.58122 150.73165 449 ft 72 kts 218°
2026-05-06 04:52 -33.58556 150.72905 442 ft 68 kts 193°
2026-05-06 04:52 -33.58952 150.73032 384 ft 65 kts 108°
2026-05-06 04:52 -33.59126 150.73523 381 ft 64 kts 113°
2026-05-06 04:53 -33.59301 150.73995 439 ft 62 kts 107°
2026-05-06 04:53 -33.59432 150.74492 473 ft 63 kts 101°
2026-05-06 04:53 -33.59559 150.74995 508 ft 65 kts 108°
2026-05-06 04:53 -33.59745 150.75467 485 ft 64 kts 92°
2026-05-06 04:54 -33.59854 150.75975 348 ft 63 kts 113°
2026-05-06 04:54 -33.59977 150.76453 226 ft 59 kts 96°
2026-05-06 04:54 -33.60100 150.76908 140 ft 57 kts 101°
2026-05-06 04:54 -33.60221 150.77372 88 ft 56 kts 103°
2026-05-06 04:55 -33.60335 150.77802 70 ft 52 kts 101°
2026-05-06 04:55 -33.60433 150.78195 65 ft 43 kts 94°
2026-05-06 04:55 -33.60417 150.78323 66 ft 3 kts
2026-05-06 04:55 -33.60391 150.78330 66 ft 0 kts 21°
2026-05-06 04:56 -33.60389 150.78330 65 ft 4 kts
2026-05-06 04:56 -33.60359 150.78329 64 ft 0 kts 287°
2026-05-06 04:56 -33.60359 150.78328 64 ft 0 kts 286°
2026-05-06 04:57 -33.60354 150.78315 64 ft 10 kts 307°
2026-05-06 04:57 -33.60259 150.78296 62 ft 19 kts 18°
2026-05-06 04:57 -33.60181 150.78279 63 ft 0 kts 260°